TimeAKST,TemperatureF,Dew PointF,Humidity,Sea Level PressureIn,VisibilityMPH,Wind Direction,Wind SpeedMPH,Gust SpeedMPH,PrecipitationIn,Events,Conditions,WindDirDegrees,DateUTC
12:16 AM,39.2,37.4,93,29.79,8.0,SE,11.5,16.1,N/A,,Overcast,130,2012-11-27 09:16:00
12:36 AM,39.2,37.4,93,29.78,10.0,SE,5.8,-,N/A,,Overcast,130,2012-11-27 09:36:00
12:56 AM,39.2,37.4,93,29.77,8.0,SE,8.1,18.4,N/A,,Overcast,140,2012-11-27 09:56:00
1:16 AM,39.2,37.4,93,29.76,10.0,SE,5.8,-,N/A,,Overcast,140,2012-11-27 10:16:00
1:36 AM,39.2,37.4,93,29.75,10.0,SE,6.9,-,N/A,,Overcast,140,2012-11-27 10:36:00
1:56 AM,39.2,37.4,93,29.73,10.0,SE,4.6,-,N/A,,Overcast,140,2012-11-27 10:56:00
2:16 AM,39.2,37.4,93,29.72,10.0,SE,4.6,-,N/A,,Overcast,140,2012-11-27 11:16:00
2:36 AM,39.2,37.4,93,29.71,9.0,ENE,3.5,-,N/A,,Overcast,60,2012-11-27 11:36:00
2:56 AM,39.2,37.4,93,29.70,10.0,SE,4.6,-,N/A,,Overcast,140,2012-11-27 11:56:00
3:16 AM,39.2,37.4,93,29.69,10.0,ENE,4.6,-,N/A,,Overcast,60,2012-11-27 12:16:00
3:36 AM,39.2,37.4,93,29.68,10.0,Calm,Calm,-,N/A,,Overcast,0,2012-11-27 12:36:00
3:56 AM,39.2,37.4,93,29.68,10.0,Calm,Calm,-,N/A,,Overcast,0,2012-11-27 12:56:00
4:16 AM,39.2,37.4,93,29.67,10.0,Calm,Calm,-,N/A,,Overcast,0,2012-11-27 13:16:00
4:36 AM,39.2,37.4,93,29.67,10.0,ENE,4.6,-,N/A,,Overcast,70,2012-11-27 13:36:00
4:56 AM,39.2,37.4,93,29.67,10.0,Calm,Calm,-,N/A,,Overcast,0,2012-11-27 13:56:00
5:16 AM,39.2,37.4,93,29.67,10.0,East,3.5,-,N/A,,Overcast,80,2012-11-27 14:16:00
5:36 AM,39.2,37.4,93,29.67,10.0,Calm,Calm,-,N/A,,Overcast,0,2012-11-27 14:36:00
6:16 AM,39.2,37.4,93,29.67,10.0,ENE,3.5,-,N/A,,Overcast,60,2012-11-27 15:16:00
6:36 AM,39.2,37.4,93,29.67,10.0,NE,4.6,-,N/A,,Overcast,40,2012-11-27 15:36:00
6:56 AM,39.2,37.4,93,29.68,10.0,NE,4.6,-,N/A,,Overcast,50,2012-11-27 15:56:00
7:36 AM,39.2,39.2,100,29.70,10.0,NNE,3.5,-,N/A,,Overcast,30,2012-11-27 16:36:00
7:56 AM,39.2,39.2,100,29.71,9.0,NNE,5.8,-,N/A,,Overcast,20,2012-11-27 16:56:00
8:16 AM,39.2,39.2,100,29.72,2.0,NNE,3.5,-,N/A,,Overcast,30,2012-11-27 17:16:00
8:36 AM,39.2,39.2,100,29.73,2.0,NE,5.8,-,N/A,,Overcast,40,2012-11-27 17:36:00
8:56 AM,37.4,37.4,100,29.73,10.0,NNE,4.6,-,N/A,,Overcast,30,2012-11-27 17:56:00
9:16 AM,37.4,37.4,100,29.74,8.0,NNE,4.6,-,N/A,,Overcast,30,2012-11-27 18:16:00
9:36 AM,39.2,37.4,93,29.75,8.0,NNE,8.1,-,N/A,,Overcast,30,2012-11-27 18:36:00
9:56 AM,39.2,37.4,93,29.77,10.0,North,3.5,-,N/A,,Overcast,10,2012-11-27 18:56:00
10:16 AM,39.2,37.4,93,29.77,8.0,NNE,6.9,-,N/A,,Overcast,30,2012-11-27 19:16:00
10:36 AM,39.2,39.2,100,29.78,3.0,NNE,10.4,17.3,N/A,,Overcast,20,2012-11-27 19:36:00
10:56 AM,39.2,37.4,93,29.79,4.0,NNE,12.7,18.4,N/A,,Overcast,20,2012-11-27 19:56:00
11:16 AM,37.4,37.4,100,29.79,4.0,NNE,12.7,19.6,N/A,,Overcast,30,2012-11-27 20:16:00
11:36 AM,39.2,39.2,100,29.80,4.0,NNE,10.4,-,N/A,,Overcast,30,2012-11-27 20:36:00
11:56 AM,39.2,39.2,100,29.81,10.0,NNE,11.5,16.1,N/A,,Overcast,20,2012-11-27 20:56:00
12:16 PM,39.2,39.2,100,29.82,8.0,NNE,6.9,-,N/A,,Overcast,20,2012-11-27 21:16:00
12:36 PM,39.2,39.2,100,29.82,10.0,NNE,8.1,-,N/A,,Overcast,20,2012-11-27 21:36:00
12:56 PM,39.2,39.2,100,29.82,10.0,North,9.2,-,N/A,,Mostly Cloudy,10,2012-11-27 21:56:00
1:16 PM,41.0,39.2,93,29.82,10.0,North,11.5,17.3,N/A,,Mostly Cloudy,10,2012-11-27 22:16:00
1:36 PM,41.0,39.2,93,29.83,3.0,NNE,9.2,-,N/A,,Mostly Cloudy,20,2012-11-27 22:36:00
1:56 PM,41.0,39.2,93,29.84,8.0,North,9.2,-,N/A,,Overcast,10,2012-11-27 22:56:00
2:16 PM,41.0,39.2,93,29.84,10.0,North,8.1,-,N/A,,Overcast,10,2012-11-27 23:16:00
2:36 PM,42.8,39.2,87,29.84,10.0,North,9.2,-,N/A,,Overcast,360,2012-11-27 23:36:00
2:56 PM,42.8,39.2,87,29.85,10.0,North,9.2,-,N/A,,Mostly Cloudy,360,2012-11-27 23:56:00
3:16 PM,42.8,39.2,87,29.85,10.0,North,4.6,-,N/A,,Mostly Cloudy,10,2012-11-28 00:16:00
3:36 PM,42.8,39.2,87,29.86,10.0,North,4.6,-,N/A,,Mostly Cloudy,10,2012-11-28 00:36:00
3:56 PM,42.8,39.2,87,29.87,10.0,NNE,3.5,-,N/A,,Mostly Cloudy,20,2012-11-28 00:56:00
4:16 PM,42.8,37.4,81,29.87,10.0,North,5.8,-,N/A,,Mostly Cloudy,360,2012-11-28 01:16:00
4:36 PM,42.8,37.4,81,29.88,10.0,North,6.9,-,N/A,,Mostly Cloudy,350,2012-11-28 01:36:00
4:56 PM,41.0,37.4,87,29.88,10.0,Calm,Calm,-,N/A,,Mostly Cloudy,0,2012-11-28 01:56:00
5:16 PM,41.0,37.4,87,29.89,10.0,Calm,Calm,-,N/A,,Mostly Cloudy,0,2012-11-28 02:16:00
5:36 PM,41.0,37.4,87,29.90,10.0,NNE,4.6,-,N/A,,Mostly Cloudy,20,2012-11-28 02:36:00
5:56 PM,39.2,37.4,93,29.91,10.0,Calm,Calm,-,N/A,,Mostly Cloudy,0,2012-11-28 02:56:00
6:16 PM,39.2,37.4,93,29.91,10.0,North,6.9,-,N/A,,Mostly Cloudy,360,2012-11-28 03:16:00
6:36 PM,39.2,35.6,87,29.92,10.0,Calm,Calm,-,N/A,,Mostly Cloudy,0,2012-11-28 03:36:00
6:56 PM,37.4,35.6,93,29.92,10.0,WNW,4.6,-,N/A,,Partly Cloudy,300,2012-11-28 03:56:00
7:16 PM,39.2,35.6,87,29.93,10.0,WNW,6.9,-,N/A,,Partly Cloudy,290,2012-11-28 04:16:00
7:36 PM,37.4,35.6,93,29.93,10.0,WNW,4.6,-,N/A,,Mostly Cloudy,300,2012-11-28 04:36:00
7:56 PM,39.2,35.6,87,29.93,10.0,NW,6.9,-,N/A,,Overcast,310,2012-11-28 04:56:00
8:16 PM,39.2,35.6,87,29.94,10.0,NNW,16.1,23.0,N/A,,Scattered Clouds,340,2012-11-28 05:16:00
8:36 PM,39.2,35.6,87,29.94,10.0,Calm,Calm,-,N/A,,Clear,0,2012-11-28 05:36:00
8:56 PM,37.4,35.6,93,29.94,10.0,WNW,5.8,-,N/A,,Clear,290,2012-11-28 05:56:00
9:16 PM,37.4,35.6,93,29.94,10.0,NW,10.4,-,N/A,,Clear,320,2012-11-28 06:16:00
9:36 PM,39.2,35.6,87,29.94,10.0,WNW,12.7,-,N/A,,Partly Cloudy,290,2012-11-28 06:36:00
9:56 PM,39.2,35.6,87,29.94,10.0,NW,9.2,-,N/A,,Clear,320,2012-11-28 06:56:00
10:16 PM,39.2,35.6,87,29.94,10.0,NNW,19.6,-,N/A,,Clear,340,2012-11-28 07:16:00
10:36 PM,39.2,35.6,87,29.94,10.0,NNW,13.8,-,N/A,,Clear,340,2012-11-28 07:36:00
10:56 PM,39.2,35.6,87,29.94,10.0,NNW,15.0,-,N/A,,Clear,340,2012-11-28 07:56:00
11:16 PM,39.2,35.6,87,29.93,10.0,NNW,17.3,-,N/A,,Clear,340,2012-11-28 08:16:00
11:36 PM,39.2,35.6,87,29.93,10.0,NNW,18.4,24.2,N/A,,Clear,340,2012-11-28 08:36:00
11:56 PM,39.2,35.6,87,29.94,10.0,NNW,15.0,-,N/A,,Clear,330,2012-11-28 08:56:00